This is the latest recevied weather packets stored in our database for station/object KG5APU. If no packets are shown the sender has not sent any weather packets the latest 10 day(s).
| Time | Temp. | Humidity | Pressure | Rain* | Wind** | Luminosity | Snow |
|---|---|---|---|---|---|---|---|
| 1777388234 | 24.44° C | 93% | 1013.4 hPa | 0 mm | - | 42 W/m² | - |
| 1777387632 | 24.44° C | 93% | 1013.1 hPa | 0 mm | - | 35 W/m² | - |
| 1777387028 | 24.44° C | 93% | 1013.1 hPa | 0 mm | - | 57 W/m² | - |
| 1777386428 | 24.44° C | 93% | 1012.9 hPa | 0 mm | - | 43 W/m² | - |
| 1777385827 | 24.44° C | 93% | 1013.1 hPa | 0 mm | - | 33 W/m² | - |
| 1777385221 | 24.44° C | 93% | 1012.9 hPa | 0 mm | - | 31 W/m² | - |
| 1777384621 | 24.44° C | 92% | 1012.9 hPa | 0 mm | - | 31 W/m² | - |
| 1777384015 | 24.44° C | 92% | 1012.8 hPa | 0 mm | - | 38 W/m² | - |
| 1777383414 | 24.44° C | 92% | 1012.9 hPa | 0 mm | - | 53 W/m² | - |
| 1777382814 | 24.44° C | 92% | 1012.8 hPa | 0 mm | - | 36 W/m² | - |
| 1777382211 | 24.44° C | 92% | 1012.6 hPa | 0 mm | - | 19 W/m² | - |
| 1777381607 | 24.44° C | 92% | 1013 hPa | 0 mm | - | 18 W/m² | - |
| 1777381006 | 24.44° C | 92% | 1012.9 hPa | 0 mm | - | 12 W/m² | - |
| 1777380404 | 24.44° C | 92% | 1012.7 hPa | 0 mm | - | 21 W/m² | - |
| 1777379803 | 24.44° C | 92% | 1012.3 hPa | 0 mm | - | 18 W/m² | - |
| 1777379199 | 24.44° C | 92% | 1012.2 hPa | 0 mm | - | 16 W/m² | - |
| 1777378597 | 24.44° C | 91% | 1011.8 hPa | 0 mm | - | 13 W/m² | - |
| 1777377991 | 23.89° C | 91% | 1011.9 hPa | 0 mm | - | 12 W/m² | - |
| 1777377387 | 24.44° C | 91% | 1011.8 hPa | 0 mm | - | 4 W/m² | - |
| 1777376786 | 24.44° C | 91% | 1012 hPa | 0 mm | - | 2 W/m² | - |
| 1777376185 | 24.44° C | 90% | 1011.8 hPa | 0 mm | - | 1 W/m² | - |
| 1777375581 | 24.44° C | 90% | 1011.2 hPa | 0 mm | - | 0 W/m² | - |
| 1777374979 | 24.44° C | 90% | 1011.5 hPa | 0 mm | - | 0 W/m² | - |
| 1777374377 | 24.44° C | 90% | 1011.2 hPa | 0 mm | - | 0 W/m² | - |
| 1777373776 | 24.44° C | 90% | 1011.3 hPa | 0 mm | - | 0 W/m² | - |
* Rain latest hour (hover to see other rain measurements)
** Current wind speed in m/s (hover to see current wind gust speed)